Wind_Speed
11 19 26 29 32 39 43 45 41 32 30 24 23 26 28 25 27 21 21 18 22 33 36 36 38 37 44 44 42 45 50 55 57 59 60 62 65 68 67 68 68 67 66 64
12 19 24 28 33 39 37 35 29 27 25 23 24 29 28 27 28 31 34 31 32 28 25 32 35 36 40 43 38 47 48 52 51 51 55 55 57 58 58 56 55 54 56 55
13 15 18 24 28 38 33 32 28 26 25 26 28 32 28 28 32 37 38 37 36 37 42 43 38 37 39 42 42 43 48 51 52 51 51 51 47 45 48 50 50 50 50 53
19 17 19 22 25 29 27 27 24 26 25 26 27 24 29 30 30 33 35 33 37 41 40 38 41 39 38 40 37 39 43 43 44 45 40 41 42 43 42 44 48 52 56 60
14 15 16 18 17 24 25 21 22 21 25 27 29 29 28 28 31 31 30 34 33 31 31 33 33 33 32 31 33 34 35 35 36 39 41 40 39 41 44 46 51 55 58 62
13 13 17 20 22 20 22 24 24 24 27 28 28 24 26 27 28 26 29 31 34 26 25 26 29 26 27 27 28 29 33 36 38 38 41 42 44 49 51 54 58 62 66 70
18 13 17 18 22 26 22 25 25 25 27 29 27 28 25 28 23 21 24 32 28 25 24 30 31 24 25 27 28 31 34 37 42 44 45 45 49 54 58 60 64 69 73 77
17 17 18 20 25 26 31 27 25 27 28 30 29 30 30 23 21 22 27 29 28 30 35 34 25 25 28 29 28 31 35 41 46 50 51 51 54 57 61 65 69 73 78 82
25 23 26 27 27 30 28 27 27 28 29 30 30 25 21 22 25 23 29 30 34 32 35 35 29 29 28 30 33 35 40 46 51 55 55 55 58 62 67 69 72 77 83 87
23 33 28 28 25 27 26 28 26 26 28 28 25 27 21 28 23 22 28 34 36 39 40 30 27 29 32 35 38 39 42 48 53 56 56 58 62 67 67 71 77 83 88 89
26 30 33 32 31 29 29 28 26 24 24 24 26 24 28 27 24 19 21 24 28 29 29 29 28 32 37 41 44 46 46 48 53 58 60 63 61 66 71 77 81 86 90 90
22 23 26 25 24 27 26 23 22 24 23 24 28 27 27 23 20 21 22 25 29 31 30 30 33 37 40 44 46 51 50 50 55 64 67 63 66 72 77 82 86 89 92 92
21 24 25 23 26 24 23 21 25 25 26 28 26 24 22 22 22 26 29 30 30 31 31 34 36 40 44 47 50 52 54 58 62 67 68 66 73 78 84 87 89 95 93 93
25 27 27 27 28 23 24 25 27 27 30 27 27 20 25 23 25 28 32 33 33 33 34 35 38 41 44 48 52 56 60 64 65 66 70 74 77 84 87 92 95 98 95 96
27 29 28 27 28 25 26 27 28 29 31 25 27 26 25 26 28 31 33 37 40 45 45 42 44 47 48 50 55 59 62 65 69 73 77 80 84 90 91 94 98 97 98 98
27 28 28 29 28 26 28 30 31 31 28 28 26 26 29 28 32 35 37 36 38 44 53 53 51 52 56 57 58 61 66 68 74 80 84 87 91 92 96 99 98 99 101 106
28 30 29 29 29 30 30 33 28 28 27 27 29 29 32 33 35 38 42 46 48 49 53 58 60 60 60 60 64 69 71 75 80 85 89 93 95 97 100 100 101 103 109 111
31 28 27 28 28 28 32 30 29 30 29 29 31 33 37 40 41 44 46 49 51 52 54 57 63 66 67 69 72 74 76 81 86 90 93 95 97 99 99 102 106 110 112 111
31 26 28 29 29 30 31 32 31 33 32 35 38 39 41 47 47 49 52 52 54 56 57 60 64 67 71 75 78 81 84 89 92 94 97 98 97 98 101 108 111 113 113 112
29 26 28 30 30 31 31 35 36 35 35 41 43 46 47 50 53 54 55 55 57 62 65 67 70 70 74 77 82 87 91 94 95 99 100 97 99 103 110 113 115 114 113 111
31 30 30 29 33 35 33 37 36 38 40 44 47 47 50 53 56 58 58 59 61 67 68 68 72 74 77 82 86 90 94 95 98 102 99 100 104 110 114 116 115 113 113 112
35 33 30 31 33 38 39 40 41 41 42 46 47 49 53 56 59 59 59 60 61 66 73 75 77 80 85 89 93 95 95 98 104 100 102 106 112 116 118 117 115 113 112 110
38 36 33 33 34 37 37 38 41 42 47 47 49 52 54 57 57 58 60 61 65 72 76 80 83 86 91 94 95 95 99 104 102 103 107 111 117 119 119 114 113 113 112 109
40 39 37 37 38 38 37 41 43 47 51 52 52 55 56 57 58 61 64 68 73 77 81 84 89 92 94 96 97 100 104 101 103 107 111 117 120 120 115 113 112 111 111 108
43 43 40 43 42 40 41 43 46 49 53 53 55 57 59 60 63 67 72 77 80 83 86 89 91 95 97 98 100 104 100 104 107 112 116 120 121 115 114 113 112 110 107 105
44 43 46 42 44 43 44 47 50 52 55 55 58 60 61 65 70 74 78 82 86 89 90 92 94 96 98 101 103 101 104 109 113 117 120 123 117 116 112 111 108 106 104 101
Wind_Direction
212 188 183 188 191 191 193 199 201 212 208 201 222 228 212 211 212 196 212 215 250 260 258 253 257 254 261 257 255 251 264 264 265 268 274 273 273 274 275 276 277 282 283 284
213 202 193 194 201 193 197 200 211 215 219 221 209 223 223 213 217 214 228 250 240 244 239 255 255 256 259 264 260 264 264 268 270 271 273 273 274 277 279 280 281 281 283 288
245 227 217 207 208 199 197 203 211 222 226 228 219 219 232 241 235 226 237 253 254 258 259 265 264 260 262 265 267 266 269 270 273 274 275 276 278 276 276 277 282 288 293 295
264 249 229 225 217 203 206 211 214 220 223 233 238 237 234 237 244 246 241 249 255 260 263 269 271 270 270 269 266 267 267 268 269 273 273 268 273 279 284 290 294 295 298 301
268 251 248 241 215 215 212 206 219 227 239 240 236 234 236 241 242 245 256 256 255 263 271 267 275 277 274 275 275 271 271 272 268 268 273 276 279 281 287 292 296 298 301 305
264 248 223 220 213 211 216 224 232 228 238 242 244 248 250 244 250 254 251 243 248 249 276 288 287 279 276 274 274 272 271 270 272 277 279 283 285 288 291 293 296 299 302 305
268 253 229 237 223 221 231 231 230 240 248 251 249 256 254 260 261 262 249 257 269 272 277 283 281 273 272 273 275 274 281 286 287 287 287 289 294 295 295 299 304 307 307 308
265 247 241 225 225 231 240 239 239 249 249 250 258 257 266 268 260 250 246 253 271 267 268 279 273 269 271 274 277 288 294 296 297 296 296 299 300 301 302 305 308 308 309 309
256 255 235 232 229 229 234 241 249 251 256 262 265 269 261 256 249 254 248 244 258 264 276 276 278 277 279 283 286 291 298 303 305 304 303 302 300 300 303 306 307 309 310 312
251 255 247 247 237 242 246 248 251 252 256 257 249 262 256 251 255 251 251 251 258 259 267 269 274 281 286 287 292 298 302 305 304 303 301 300 300 302 305 307 309 311 311 312
245 246 251 257 269 250 249 252 251 246 240 244 254 252 254 263 260 242 240 246 250 256 260 264 272 285 293 298 300 302 304 304 303 302 305 306 306 306 308 310 311 312 313 312
255 254 259 256 253 246 247 246 245 242 242 242 246 247 251 251 257 266 265 262 263 266 273 283 291 295 296 297 298 302 303 303 302 303 306 306 305 307 309 311 311 314 313 312
253 250 248 248 249 243 241 245 247 242 241 244 247 245 248 252 264 267 269 267 272 279 286 291 295 297 298 299 300 301 301 302 302 304 306 307 307 309 310 310 311 312 312 311
253 250 249 248 252 249 250 246 241 238 244 246 244 243 251 260 264 271 274 281 281 283 285 290 291 295 297 299 301 301 301 303 305 308 310 310 311 312 311 311 311 313 312 311
253 253 252 250 251 249 245 244 242 242 244 233 240 248 252 261 270 277 286 292 297 297 295 296 297 299 300 300 298 300 303 306 308 311 312 312 312 312 312 311 311 311 311 312
251 251 250 253 256 251 251 248 243 236 235 236 245 253 261 272 276 278 281 286 288 290 298 301 301 302 303 303 302 302 303 306 311 313 312 312 312 311 312 312 311 312 312 313
248 247 250 253 253 251 247 248 243 240 241 247 256 265 271 270 276 284 289 293 295 299 301 303 306 306 304 302 304 307 308 310 311 313 313 313 313 312 312 312 312 313 314 315
250 252 254 257 255 246 248 242 241 245 251 257 262 266 273 279 284 287 291 293 295 297 300 301 306 304 304 307 308 310 311 311 312 312 312 312 311 311 312 312 314 315 315 316
247 253 256 258 251 243 241 244 246 252 259 264 268 272 276 281 286 289 290 292 294 297 299 302 302 302 306 309 310 310 310 310 312 312 313 312 311 312 313 316 315 316 317 317
247 256 257 253 245 242 246 251 255 259 263 265 272 277 281 284 288 290 292 295 298 300 302 304 304 304 304 305 307 308 309 311 311 313 313 312 313 315 316 316 318 318 317 317
245 252 254 252 244 244 250 256 260 264 267 271 274 279 284 288 290 291 294 298 300 298 300 301 302 303 303 304 306 307 309 310 311 313 312 314 314 315 317 318 319 318 318 318
243 246 250 250 251 252 253 259 263 267 271 272 277 280 283 285 287 291 294 295 296 297 299 301 303 303 305 306 307 309 309 311 312 313 314 316 317 317 318 319 319 318 317 316
242 244 247 249 251 254 259 262 266 271 271 274 277 280 284 285 289 291 292 292 293 296 298 301 302 304 306 308 309 309 311 312 313 315 316 316 316 318 318 318 318 317 316 315
243 246 249 254 254 259 262 264 266 268 272 276 281 284 284 287 288 289 289 290 293 296 299 301 303 304 306 308 308 311 312 312 314 315 315 316 317 317 318 318 317 317 316 315
244 249 253 255 260 260 264 267 270 271 275 280 282 282 287 286 287 289 291 293 295 297 300 301 302 304 306 308 309 310 311 313 314 315 315 316 316 317 318 318 318 317 315 314
248 250 253 258 262 266 267 267 268 270 273 275 280 284 284 285 286 288 291 293 296 298 300 301 302 304 306 309 310 311 312 314 314 314 315 316 317 318 318 318 317 316 316 314
Height
10594 10595 10598 10601 10604 10606 10611 10614 10621 10628 10635 10643 10646 10648 10652 10655 10657 10657 10660 10662 10663 10666 10667 10669 10671 10674 10668 10668 10677 10673 10666 10663 10663 10661 10657 10656 10652 10644 10643 10638 10633 10629 10621 10615
10594 10596 10599 10603 10603 10607 10613 10620 10623 10627 10634 10640 10644 10642 10646 10651 10654 10657 10656 10656 10657 10659 10660 10662 10663 10664 10662 10658 10664 10661 10658 10651 10651 10651 10647 10643 10639 10634 10630 10625 10621 10619 10609 10604
10596 10598 10600 10601 10604 10609 10617 10620 10623 10628 10630 10634 10639 10641 10643 10644 10643 10648 10648 10648 10650 10650 10649 10651 10651 10653 10653 10652 10653 10650 10646 10643 10641 10639 10637 10632 10629 10625 10620 10615 10610 10602 10598 10591
10595 10596 10598 10600 10604 10612 10617 10620 10623 10623 10627 10629 10632 10638 10640 10640 10637 10638 10645 10646 10647 10642 10642 10644 10642 10643 10644 10644 10647 10642 10638 10636 10633 10629 10628 10623 10621 10615 10610 10604 10596 10589 10583 10575
10595 10595 10597 10601 10606 10609 10614 10617 10619 10622 10623 10625 10628 10630 10635 10635 10635 10636 10636 10637 10640 10636 10637 10639 10636 10635 10634 10633 10632 10632 10629 10628 10625 10622 10618 10614 10610 10605 10599 10594 10586 10579 10572 10565
10592 10594 10595 10597 10601 10605 10609 10611 10615 10619 10619 10619 10621 10626 10626 10626 10629 10634 10630 10626 10627 10631 10631 10631 10630 10629 10625 10625 10625 10623 10623 10621 10617 10613 10609 10604 10597 10590 10584 10579 10572 10565 10558 10550
10591 10592 10594 10595 10599 10602 10605 10608 10611 10613 10614 10612 10615 10614 10616 10618 10621 10620 10619 10616 10620 10624 10625 10625 10624 10620 10620 10620 10619 10617 10614 10610 10605 10600 10597 10593 10586 10578 10570 10563 10556 10546 10538 10530
10592 10592 10591 10593 10595 10600 10601 10603 10606 10607 10607 10606 10608 10610 10611 10612 10613 10617 10613 10609 10612 10614 10617 10617 10617 10616 10614 10613 10613 10610 10605 10599 10592 10585 10581 10577 10570 10563 10556 10549 10541 10531 10521 10512
10585 10589 10588 10589 10591 10591 10593 10598 10599 10600 10602 10601 10600 10606 10608 10610 10608 10612 10609 10608 10608 10609 10610 10610 10609 10606 10606 10605 10603 10601 10596 10588 10580 10572 10568 10562 10556 10549 10542 10534 10525 10515 10503 10493
10579 10583 10585 10583 10586 10589 10589 10592 10594 10596 10597 10596 10596 10598 10604 10601 10603 10605 10604 10604 10605 10606 10608 10607 10605 10601 10598 10595 10593 10592 10588 10579 10570 10562 10556 10549 10543 10535 10528 10519 10509 10498 10486 10474
10573 10576 10580 10580 10581 10584 10585 10586 10589 10591 10592 10592 10592 10594 10592 10593 10595 10601 10601 10602 10601 10601 10600 10600 10599 10595 10590 10585 10579 10577 10577 10571 10560 10549 10544 10537 10530 10521 10513 10504 10493 10482 10468 10456
10571 10572 10574 10576 10576 10578 10580 10581 10583 10585 10588 10588 10588 10589 10588 10588 10590 10591 10593 10593 10592 10592 10591 10590 10589 10585 10582 10577 10571 10564 10562 10559 10551 10538 10530 10524 10516 10507 10496 10486 10476 10465 10451 10437
10567 10567 10570 10572 10572 10575 10576 10579 10580 10581 10582 10582 10583 10584 10585 10586 10587 10586 10584 10586 10585 10583 10583 10582 10580 10575 10570 10566 10560 10553 10547 10543 10536 10526 10516 10511 10500 10490 10479 10467 10458 10448 10434 10420
10564 10566 10568 10568 10569 10572 10573 10575 10576 10577 10576 10578 10577 10582 10582 10584 10584 10581 10579 10577 10576 10576 10575 10574 10572 10568 10564 10557 10548 10540 10533 10526 10518 10510 10502 10494 10486 10473 10462 10449 10436 10423 10411 10399
10560 10562 10563 10564 10564 10566 10568 10570 10571 10571 10571 10575 10575 10576 10578 10579 10578 10576 10573 10570 10566 10561 10561 10563 10561 10555 10550 10545 10538 10529 10519 10511 10503 10494 10485 10478 10467 10454 10443 10430 10417 10402 10389 10375
10554 10556 10557 10558 10560 10562 10562 10562 10562 10564 10568 10570 10571 10571 10571 10573 10572 10569 10567 10567 10564 10556 10546 10543 10544 10540 10535 10529 10522 10515 10507 10498 10489 10478 10466 10457 10446 10434 10420 10405 10392 10379 10365 10350
10549 10550 10552 10554 10554 10555 10556 10555 10560 10562 10563 10564 10564 10566 10565 10564 10563 10561 10557 10553 10548 10545 10539 10528 10523 10522 10517 10511 10505 10498 10490 10481 10471 10461 10448 10434 10423 10409 10396 10381 10367 10353 10338 10323
10543 10546 10546 10546 10548 10549 10548 10552 10554 10555 10558 10559 10558 10558 10555 10552 10554 10551 10547 10543 10540 10536 10531 10523 10513 10500 10496 10493 10487 10480 10472 10463 10453 10443 10431 10418 10403 10389 10374 10360 10346 10330 10315 10299
10537 10540 10541 10542 10542 10542 10545 10546 10548 10549 10552 10551 10548 10549 10547 10542 10542 10539 10535 10532 10528 10524 10520 10514 10503 10493 10484 10475 10467 10460 10452 10443 10434 10420 10409 10396 10383 10368 10354 10338 10322 10306 10289 10272
10532 10534 10536 10535 10536 10538 10539 10539 10541 10544 10546 10541 10540 10538 10537 10533 10529 10525 10522 10519 10515 10508 10502 10495 10486 10481 10475 10465 10456 10447 10436 10424 10412 10400 10387 10374 10360 10344 10329 10314 10298 10281 10264 10248
10526 10528 10529 10529 10531 10532 10533 10531 10535 10534 10535 10533 10530 10529 10525 10522 10516 10512 10510 10507 10502 10490 10488 10483 10473 10466 10459 10450 10441 10430 10419 10405 10393 10380 10366 10351 10338 10323 10306 10289 10273 10255 10239 10223
10519 10520 10522 10522 10523 10524 10526 10525 10526 10526 10525 10522 10521 10519 10515 10510 10504 10499 10498 10496 10489 10479 10469 10463 10457 10449 10439 10430 10421 10410 10398 10385 10370 10356 10343 10327 10311 10297 10281 10264 10248 10232 10217 10202
10510 10511 10513 10514 10514 10515 10517 10517 10516 10517 10511 10511 10510 10507 10502 10497 10493 10488 10482 10478 10473 10466 10457 10447 10440 10432 10421 10410 10399 10388 10375 10362 10347 10334 10320 10306 10291 10275 10260 10244 10226 10207 10190 10177
10501 10501 10503 10504 10504 10506 10508 10507 10507 10504 10499 10498 10497 10493 10488 10484 10479 10474 10468 10463 10459 10452 10442 10432 10422 10412 10403 10393 10379 10367 10355 10341 10329 10315 10301 10286 10270 10253 10237 10221 10204 10185 10163 10148
10491 10491 10494 10490 10493 10498 10498 10497 10495 10491 10487 10488 10484 10478 10475 10470 10464 10457 10450 10444 10438 10432 10425 10415 10405 10394 10383 10372 10360 10348 10335 10322 10309 10294 10279 10263 10246 10231 10213 10196 10179 10162 10142 10123
10482 10483 10479 10482 10481 10486 10485 10483 10481 10479 10476 10476 10470 10465 10460 10454 10448 10441 10435 10427 10419 10412 10404 10396 10386 10375 10364 10352 10339 10326 10313 10300 10285 10270 10254 10237 10220 10205 10188 10172 10154 10135 10118 10100